Home   Weather   Helena   Past weeks
Flag for USA

Past Weather in Helena, Montana, USA — Yesterday and Last 2 Weeks

Now
52 °F

Sunny.


Feels Like: 52 °F
Forecast: 52 / 28 °F
Wind: 3 mph from Southeast

Location: Helena Regional Airport

Current Time: Oct 13, 2019 at 2:46:03 pm

Latest Report: Oct 13, 2019 at 1:53 pm


Visibility: 10 mi

Pressure: 29.95 "Hg (25.80 "Hg at 1239m altitude)

Humidity: 43%

Dew Point: 30 °F

Location of HelenaLocation

Past Weather in Helena — Graph

°F

Helena Temperature Yesterday

Maximum temperature yesterday: 53 °F (at 4:53 pm)
Minimum temperature yesterday: 20 °F (at 7:53 am)
Average temperature yesterday: 36 °F

High & Low Weather Summary for the Past Weeks

 TemperatureHumidityPressure
High70 °F (Oct 7, 4:53 pm)92% (Sep 29, 6:53 am)30.62 "Hg (Sep 29, 6:53 am)
Low17 °F (Oct 11, 7:53 am)21% (Oct 6, 4:53 pm)29.61 "Hg (Oct 8, 7:53 am)
Average36 °F66%30.16 "Hg
* Reported Sep 28 12:21 pm — Oct 13 12:53 pm, Helena. Weather by CustomWeather, © 2019

Note: Actual official high and low records may vary slightly from our data, if they occured in-between our weather recording intervals... More about our weather records

Advertising

Helena Weather History for the Previous 24 Hours

Scroll right to see more
 ConditionsComfort  
Time TempWeatherWind HumidityBarometerVisibility
12:53 pm
Sun, Oct 13
48 °FSunny.No wind50%29.99 "Hg10 mi
11:53 am44 °FSunny.3 mph58%30.02 "Hg10 mi
10:53 am40 °FSunny.No wind70%30.05 "Hg10 mi
9:53 am35 °FSunny.3 mph78%30.07 "Hg10 mi
8:53 am33 °FSunny.No wind78%30.06 "Hg10 mi
7:53 am28 °FSunny.No wind85%30.07 "Hg10 mi
6:53 am28 °FClear.No wind85%30.06 "Hg10 mi
5:53 am30 °FClear.No wind79%30.03 "Hg10 mi
4:53 am31 °FClear.No wind79%30.03 "Hg10 mi
3:53 am31 °FClear.No wind79%30.03 "Hg10 mi
2:53 am31 °FClear.No wind79%30.04 "Hg10 mi
1:53 am33 °FClear.No wind75%30.04 "Hg10 mi
12:53 am34 °FClear.No wind76%30.04 "Hg10 mi
11:53 pm
Sat, Oct 12
35 °FClear.No wind72%30.05 "Hg10 mi
10:53 pm35 °FClear.No wind72%30.06 "Hg10 mi
9:53 pm38 °FClear.No wind65%30.07 "Hg10 mi
8:53 pm40 °FClear.6 mph60%30.07 "Hg10 mi
7:53 pm42 °FClear.8 mph60%30.09 "Hg10 mi
6:53 pm44 °FClear.7 mph60%30.08 "Hg10 mi
5:53 pm52 °FSunny.No wind43%30.06 "Hg10 mi
4:53 pm53 °FSunny.5 mph41%30.07 "Hg10 mi
3:53 pm52 °FSunny.14 mph43%30.08 "Hg10 mi
2:53 pm50 °FSunny.9 mph39%30.11 "Hg10 mi
Weather by CustomWeather, © 2019

See weather overview